Greybull, WY

7:01 AM MDT on March 27, 2017 (GMT -0600)
South Big Horn County

Weather History for KGEY - January, 2014

Change the Weather History Date:

Thursday, January 2, 2014

  Actual Average Record
Temperature  
Mean Temperature 17 °F 16 °F  
Max Temperature 30 °F 28 °F 49 °F (2006)
Min Temperature 4 °F 4 °F -12 °F (2011)
Degree Days  
Heating Degree Days 48 49  
Month to date heating degree days 85 98  
Since 1 July heating degree days 3200 3421  
Cooling Degree Days 0 0  
Month to date cooling degree days 0 0  
Year to date cooling degree days 0 0  
Moisture  
Dew Point 9 °F    
Average Humidity 75    
Maximum Humidity 86    
Minimum Humidity 63    
Precipitation  
Precipitation 0.00 in 0.01 in 0.50 in (1975)
Month to date precipitation T 0.02  
Year to date precipitation T 0.02  
Sea Level Pressure  
Sea Level Pressure 30.29 in    
Wind  
Wind Speed 2 mph (ESE)    
Max Wind Speed 9 mph    
Max Gust Speed 12 mph    
Visibility 8 miles    
Events      
T = Trace of Precipitation, MM = Missing Value Source: NWS Daily Summary

Daily Weather History Graph

Daily Weather History Graph

Search for Another Location

Airport or City:

Trip Planner

Search our weather history database for the weather conditions in past years. The results will help you decide how hot, cold, wet, or windy it might be!

Date:

Astronomy

Jan. 02, 2014 Rise Set
Actual Time 7:48 AM MST 4:44 PM MST
Civil Twilight 7:15 AM MST 5:17 PM MST
Nautical Twilight 6:39 AM MST 5:54 PM MST
Astronomical Twilight 6:03 AM MST 6:29 PM MST
Moon 8:28 AM MST (1/2) 6:50 PM MST (1/2)
Length of Visible Light 10h 01m
Length of Day
8h 55m
Waxing Crescent, 3% of the Moon is Illuminated
Jan 2
Waxing Crescent
Jan 7
First Quarter
Jan 15
Full
Jan 23
Last Quarter
Jan 30
New

Hourly Weather History & Observations

Time (MST) Temp. Windchill Dew Point Humidity Pressure Visibility Wind Dir Wind Speed Gust Speed Precip Events Conditions
12:53 AM 15.1 °F - 9.0 °F 77% 30.37 in 10.0 mi Calm Calm - N/A   Clear
1:11 AM 12.9 °F - 8.1 °F 81% 30.23 in 10.0 mi Calm Calm - N/A   Scattered Clouds
1:20 AM 12.9 °F - 9.0 °F 84% 30.24 in 8.0 mi Calm Calm - N/A   Mostly Cloudy
1:25 AM 12.9 °F - 10.0 °F 88% 30.23 in 1.5 mi Calm Calm - N/A   Mostly Cloudy
1:27 AM 12.9 °F - 10.0 °F 88% 30.23 in 0.8 mi Calm Calm - N/A   Mist
1:53 AM 12.0 °F - 7.0 °F 80% 30.38 in 0.2 mi Calm Calm - N/A   Haze
2:53 AM 10.9 °F 4.7 °F 6.1 °F 81% 30.39 in 0.8 mi ESE 3.5 mph - N/A   Haze
2:56 AM 12.0 °F 5.9 °F 7.0 °F 80% 30.25 in 1.2 mi ESE 3.5 mph - N/A   Haze
3:01 AM 12.0 °F 5.9 °F 7.0 °F 80% 30.25 in 4.0 mi ESE 3.5 mph - N/A   Haze
3:08 AM 10.9 °F 2.9 °F 7.0 °F 84% 30.24 in 10.0 mi SE 4.6 mph - N/A   Scattered Clouds
3:53 AM 10.9 °F 4.7 °F 7.0 °F 84% 30.38 in 10.0 mi ESE 3.5 mph - N/A   Clear
4:53 AM 7.0 °F - 1.0 °F 77% 30.38 in 10.0 mi Calm Calm - N/A   Clear
5:53 AM 3.9 °F -3.4 °F -0.9 °F 80% 30.40 in 10.0 mi NW 3.5 mph - N/A   Clear
6:53 AM 7.0 °F 0.1 °F 1.0 °F 77% 30.40 in 10.0 mi NNW 3.5 mph - N/A   Clear
7:53 AM 5.0 °F - -2.0 °F 73% 30.40 in 10.0 mi Calm Calm - N/A   Clear
8:53 AM 9.0 °F - 3.0 °F 77% 30.40 in 10.0 mi Calm Calm - N/A   Clear
9:53 AM 12.0 °F - 7.0 °F 80% 30.42 in 10.0 mi Calm Calm - N/A   Clear
10:13 AM 12.0 °F 5.9 °F 6.1 °F 77% 30.24 in 10.0 mi ESE 3.5 mph - N/A   Mostly Cloudy
10:53 AM 15.1 °F 9.4 °F 9.0 °F 77% 30.41 in 10.0 mi East 3.5 mph - N/A   Overcast
11:53 AM 19.9 °F 13.4 °F 12.9 °F 74% 30.35 in 10.0 mi South 4.6 mph - N/A   Overcast
12:53 PM 23.0 °F 17.0 °F 16.0 °F 74% 30.32 in 10.0 mi South 4.6 mph - N/A   Partly Cloudy
1:53 PM 27.0 °F - 18.0 °F 69% 30.28 in 10.0 mi Calm Calm - N/A   Clear
2:53 PM 26.1 °F 21.9 °F 16.0 °F 66% 30.27 in 10.0 mi North 3.5 mph - N/A   Clear
3:53 PM 28.9 °F - 17.1 °F 61% 30.24 in 10.0 mi Calm Calm - N/A   Clear
4:53 PM 27.0 °F - 17.1 °F 66% 30.25 in 10.0 mi Calm Calm - N/A   Clear
5:53 PM 24.1 °F 19.7 °F 16.0 °F 71% 30.25 in 10.0 mi SE 3.5 mph - N/A   Clear
6:53 PM 23.0 °F - 15.1 °F 72% 30.23 in 10.0 mi Calm Calm - N/A   Clear
7:53 PM 21.0 °F 14.6 °F 14.0 °F 74% 30.24 in 10.0 mi SE 4.6 mph - N/A   Clear
8:53 PM 19.0 °F 12.3 °F 12.9 °F 77% 30.20 in 10.0 mi SE 4.6 mph - N/A   Clear
9:53 PM 19.0 °F - 12.0 °F 74% 30.17 in 10.0 mi Calm Calm - N/A   Clear
10:53 PM 19.0 °F 11.1 °F 12.0 °F 74% 30.15 in 10.0 mi SE 5.8 mph - N/A   Clear
11:53 PM 18.0 °F 8.7 °F 10.9 °F 74% 30.10 in 10.0 mi ESE 6.9 mph - N/A   Clear